﻿Дата;Google;AdRiver
2014-04-30;1;0
2014-04-29;4;0
2014-04-28;3;0
2014-04-27;6;0
2014-04-26;5;0
2014-04-25;2;0
2014-04-24;3;0
2014-04-23;4;0
2014-04-22;3;0
2014-04-21;4;0
2014-04-20;5;0
2014-04-19;4;0
2014-04-18;5;0
2014-04-17;3;0
2014-04-16;5;0
2014-04-15;3;0
2014-04-13;1;0
2014-04-11;2;0
2014-04-10;4;0
2014-04-09;2;0
2014-04-08;3;0
2014-04-07;1;0
2014-04-06;4;0
2014-04-05;1;0
2014-04-04;2;0
2014-04-03;3;0
2014-04-02;1;0
2014-04-01;3;0
2014-03-31;2;0
2014-03-30;3;0
2014-03-29;1;0
2014-03-28;3;0
2014-03-24;2;0
2014-03-23;4;0
2014-03-22;2;0
2014-03-21;1;0
2014-03-20;2;0
2014-03-19;3;0
2014-03-18;3;0
2014-03-17;1;0
2014-03-16;3;0
2014-03-15;2;0
2014-03-14;4;0
2014-03-13;2;0
2014-03-12;2;0
2014-03-11;3;0
2014-03-09;1;0
2014-03-07;1;0
2014-02-28;1;0
2014-02-26;3;0
2014-02-25;2;0
2014-02-24;1;0
2014-02-23;1;0
2014-02-21;2;0
2014-02-20;2;0
2014-02-19;1;0
2014-02-18;2;0
2014-02-17;3;0
2014-02-16;2;0
2014-02-15;1;0
2014-02-14;3;0
2014-02-13;2;0
2014-02-12;2;0
2014-02-11;2;0
2014-02-10;1;0
2014-02-04;3;0
2013-11-04;3;0
2013-10-31;1;0
2013-10-30;1;0
2013-09-27;1;0
2013-09-25;3;0
2013-09-23;2;0
2013-09-22;1;0
2013-09-21;2;0
2013-09-19;3;0
2013-09-18;1;0
2013-09-17;1;0
2013-09-13;1;0
2013-09-12;1;0
2013-09-11;1;0
2013-09-10;1;0
2013-09-07;2;0
2013-09-06;1;0
2013-09-04;1;0
2013-09-03;2;0
2013-09-02;1;0
2013-09-01;4;0
2013-08-31;2;0
2013-08-30;2;0
2013-08-29;1;0
2013-08-28;2;0
2013-08-24;3;0
2013-08-23;1;0
2013-08-22;5;0
2013-08-21;1;0
2013-08-19;2;0
2013-08-18;3;0
2013-08-17;2;0
2013-08-16;2;0
2013-08-15;2;0
2013-08-14;1;0
2013-08-13;1;0
2013-08-12;2;0
2013-08-11;1;0
2013-08-10;1;0
2013-08-09;2;0
2013-08-08;1;0
2013-08-05;1;0
2013-08-04;2;0
2013-08-02;1;0
2013-08-01;1;0
2013-07-30;2;0
2013-07-29;1;0
2013-07-28;2;0
2013-07-27;1;0
2013-07-26;1;0
2013-07-25;1;0
2013-07-24;2;0
2013-07-23;4;0
2013-07-22;3;0
2013-07-21;1;0
2013-07-20;2;0
2013-07-19;1;0
2013-07-18;1;0
2013-07-17;1;0
2013-07-16;3;0
2013-07-15;2;0
2013-07-14;4;0
2013-07-13;1;0
2013-07-12;2;0
2013-07-11;1;0
2013-07-10;1;0
2013-07-09;2;0
2013-07-08;4;0
2013-07-06;2;0
2013-07-05;3;0
2013-07-04;3;0
2013-07-03;5;0
2013-07-02;4;0
2013-07-01;4;0
2013-06-30;2;0
2013-06-29;3;0
2013-06-28;2;0
2013-06-27;3;0
2013-06-26;1;0
2013-06-25;1;0
2013-06-24;2;0
2013-06-23;3;0
2013-06-22;1;0
2013-06-21;1;0
2013-06-20;3;0
2013-06-19;3;0
2013-06-18;2;0
2013-06-17;1;0
2013-06-16;1;0
2013-06-15;3;0
2013-06-14;5;0
2013-06-13;4;0
2013-06-12;8;0
2013-06-11;4;0
2013-06-10;2;0
2013-06-09;6;0
2013-06-08;2;0
2013-06-07;5;0
2013-06-06;7;0
2013-06-05;6;0
2013-06-04;6;0
2013-06-03;5;0
2013-06-01;4;0
2013-05-31;3;0
2013-05-30;4;0
2013-05-29;4;0
2013-05-28;4;0
2013-05-27;7;0
2013-05-26;4;0
2013-05-25;3;0
2013-05-24;6;0
2013-05-22;5;0
2013-05-21;4;0
2013-05-20;7;0
2013-05-19;6;0
2013-05-18;5;0
2013-05-17;6;0
2013-05-16;4;0
2013-05-15;6;0
2013-05-14;4;0
2013-05-13;6;0
2013-05-12;2;0
2013-05-11;3;0
2013-05-10;6;0
2013-05-09;6;0
2013-05-08;7;0
2013-05-07;5;0
2013-05-06;8;0
2013-05-05;5;0
2013-05-04;6;0
2013-05-03;3;0
2013-05-02;5;0
2013-05-01;4;0
2013-04-30;4;0
2013-04-29;2;0
2013-04-28;3;0
2013-04-27;6;0
2013-04-26;7;0
2013-04-25;3;0
2013-04-24;3;0
2013-04-23;7;0
2013-04-22;6;0
2013-04-21;7;0
2013-04-20;7;0
2013-04-19;6;0
2013-04-18;6;0
2013-04-17;8;0
2013-04-16;4;0
2013-04-15;7;0
2013-04-14;7;0
2013-04-13;5;0
2013-04-12;6;0
2013-04-11;6;0
2013-04-10;5;0
2013-04-09;8;0
2013-04-08;5;0
2013-04-07;9;0
2013-04-06;4;0
2013-04-05;4;0
2013-04-04;3;0
2013-04-03;6;0
2013-04-02;7;0
2013-04-01;8;0
2013-03-31;5;0
2013-03-30;7;0
2013-03-29;9;0
2013-03-28;5;0
2013-03-27;5;0
2013-03-26;2;0
2013-03-25;4;0
2013-03-24;9;0
2013-03-23;5;0
2013-03-22;6;0
2013-03-21;6;0
2013-03-20;6;0
2013-03-19;6;0
2013-03-18;7;0
2013-03-17;7;0
2013-03-16;7;0
2013-03-15;5;0
2013-03-14;2;0
2013-03-13;6;0
2013-03-12;4;0
2013-03-11;6;0
2013-03-10;1;0
2013-03-09;5;0
2013-03-08;4;0
2013-03-07;7;0
2013-03-05;8;0
2013-03-04;3;0
2013-03-03;10;0
2013-03-02;7;0
2013-03-01;5;0
2013-02-28;7;0
2013-02-27;6;0
2013-02-26;6;0
2013-02-25;4;0
2013-02-24;9;0
2013-02-23;10;0
2013-02-22;5;0
2013-02-21;9;0
2013-02-20;10;0
2013-02-19;9;0
2013-02-18;7;0
2013-02-17;6;0
2013-02-16;7;0
2013-02-15;4;0
2013-02-14;5;0
2013-02-13;5;0
2013-02-12;6;0
2013-02-11;7;0
2013-02-10;2;0
2013-02-09;7;0
2013-02-08;6;0
2013-02-07;5;0
2013-02-06;6;0
2013-02-05;6;0
2013-02-04;6;0
2013-02-03;9;0
2013-02-02;8;0
2013-02-01;6;0
2013-01-31;6;0
2013-01-30;6;0
2013-01-29;7;0
2013-01-28;4;0
2013-01-27;5;0
2013-01-26;5;0
2013-01-25;3;0
2013-01-24;4;0
2013-01-23;5;0
2013-01-22;9;0
2013-01-21;5;0
2013-01-20;5;0
2013-01-19;8;0
2013-01-18;6;0
2013-01-17;4;0
2013-01-16;4;0
2013-01-15;6;0
2013-01-14;5;0
2013-01-13;4;0
2013-01-12;10;0
2013-01-11;7;0
2013-01-10;3;0
2013-01-09;8;0
2013-01-08;6;0
2013-01-07;3;0
2013-01-06;7;0
2013-01-05;7;0
2013-01-04;4;0
2013-01-03;6;0
2013-01-02;5;0
2013-01-01;2;0
2012-12-29;3;0
2012-12-28;4;0
2012-12-16;4;0
2012-12-15;2;0
2012-12-14;2;0
2012-12-13;1;0
2012-12-12;3;0
2012-12-11;2;0
2012-12-10;3;0
2012-12-09;4;0
2012-12-08;4;0
2012-12-07;2;0
2012-12-06;3;0
2012-12-04;1;0
2012-12-03;2;0
2012-11-25;1;0
2012-11-24;2;0
2012-11-23;1;0
2012-11-22;1;0
2012-11-21;1;0
2012-11-20;2;0
2012-11-19;3;0
2012-11-18;1;0
2012-11-17;4;0
2012-11-16;4;0
2012-11-15;4;0
2012-11-14;4;0
2012-11-12;2;0
2012-11-11;4;0
2012-11-10;3;0
2012-11-09;3;0
2012-11-08;2;0
2012-11-07;4;0
2012-11-06;1;0
2012-11-05;3;0
2012-11-04;3;0
2012-11-03;2;0
2012-11-01;3;0
2012-10-31;1;0
2012-10-30;1;0
2012-10-29;2;0
2012-10-28;1;0
2012-10-27;1;0
2012-10-26;2;0
2012-10-25;2;0
2012-10-22;1;0
2012-08-23;0;1
2012-08-21;0;1
2012-08-18;0;1
2012-08-15;0;1
2012-08-10;0;1
